Estación de Monte Patria - Chilecito

Ultimos registro cada 15 minutos 67
Estación Fecha / Hora Temperatura Humedad Lluvia Velocidad Dirección Radiación Presion
67 Monte Patria - Chilecito 09-05-2026 16:30 21,1 30,8 0 0 317 176,9 934,7
66 Monte Patria - Chilecito 09-05-2026 16:15 21,2 30,1 0 0 309 284,4 934,7
65 Monte Patria - Chilecito 09-05-2026 16:00 21,9 29,3 0 0 302 266,9 934,6
64 Monte Patria - Chilecito 09-05-2026 15:45 22,5 28,7 0 0 320 358,1 934,7
63 Monte Patria - Chilecito 09-05-2026 15:30 22,7 27,6 0 0 337 290,6 934,6
62 Monte Patria - Chilecito 09-05-2026 15:15 23,6 25,8 0 0 324 435,6 934,5
61 Monte Patria - Chilecito 09-05-2026 15:00 23 26 0 0 340 468,1 934,7
60 Monte Patria - Chilecito 09-05-2026 14:45 23,3 25,1 0 0 319 94,4 934,6
59 Monte Patria - Chilecito 09-05-2026 14:30 23,1 26,2 0 0,5 343 288,1 934,9
58 Monte Patria - Chilecito 09-05-2026 14:15 23,1 26,1 0 0 321 405,6 934,8
57 Monte Patria - Chilecito 09-05-2026 14:00 23,5 25,2 0 0 307 565,6 934,9
56 Monte Patria - Chilecito 09-05-2026 13:45 23,3 26,5 0 0,5 310 579,4 935
55 Monte Patria - Chilecito 09-05-2026 13:30 22,6 26,1 0 0,5 316 581,9 935,4
54 Monte Patria - Chilecito 09-05-2026 13:15 22,3 26 0 0 313 583,1 935,5
53 Monte Patria - Chilecito 09-05-2026 13:00 22,5 26,4 0 0 317 586,9 935,7
52 Monte Patria - Chilecito 09-05-2026 12:45 22 27,7 0 0 354 600,6 936,1
51 Monte Patria - Chilecito 09-05-2026 12:30 21,9 25,8 0 0 317 594,4 936,2
50 Monte Patria - Chilecito 09-05-2026 12:15 21,5 27,7 0 0 317 586,9 936,4
49 Monte Patria - Chilecito 09-05-2026 12:00 21,1 28,2 0 0 320 581,9 936,5
48 Monte Patria - Chilecito 09-05-2026 11:45 20,2 27,1 0 0 343 568,1 936,8
47 Monte Patria - Chilecito 09-05-2026 11:30 19,7 27,9 0 0 344 65,6 936,7
46 Monte Patria - Chilecito 09-05-2026 11:15 19,5 27,5 0 0 331 59,4 936,7
45 Monte Patria - Chilecito 09-05-2026 11:00 18,5 27,5 0 0 350 58,1 936,8
44 Monte Patria - Chilecito 09-05-2026 10:45 18,9 27,3 0 0 347 509,4 936,8
43 Monte Patria - Chilecito 09-05-2026 10:30 18,8 25,3 0 0 348 488,1 936,8
42 Monte Patria - Chilecito 09-05-2026 10:15 17,9 26,6 0 0 348 456,9 936,8
41 Monte Patria - Chilecito 09-05-2026 10:00 16,7 28 0 0 348 428,1 936,7
40 Monte Patria - Chilecito 09-05-2026 09:45 15,1 30,2 0 0 338 394,4 936,8
39 Monte Patria - Chilecito 09-05-2026 09:30 14,7 32,2 0 0 333 44,4 936,8
38 Monte Patria - Chilecito 09-05-2026 09:15 14,4 30,7 0 0 321 201,9 937
37 Monte Patria - Chilecito 09-05-2026 09:00 13,2 32 0 0 312 281,9 937,1
36 Monte Patria - Chilecito 09-05-2026 08:45 12,9 33 0 0 309 39,4 936,9
35 Monte Patria - Chilecito 09-05-2026 08:30 11,8 34,4 0 0 309 109,4 937
34 Monte Patria - Chilecito 09-05-2026 08:15 10 39,8 0 0 309 164,4 936,7
33 Monte Patria - Chilecito 09-05-2026 08:00 6,8 45,3 0 0 309 10,6 936,5
32 Monte Patria - Chilecito 09-05-2026 07:45 6,6 44,5 0 0 309 6,9 936,3
31 Monte Patria - Chilecito 09-05-2026 07:30 7,3 42,1 0 0 309 4,4 936,2
30 Monte Patria - Chilecito 09-05-2026 07:15 6,9 38,6 0 0 309 0,6 935,9
29 Monte Patria - Chilecito 09-05-2026 07:00 6,7 40,5 0 0 309 0,6 935,8
28 Monte Patria - Chilecito 09-05-2026 06:45 6,5 41,5 0 0 309 0,6 935,7
27 Monte Patria - Chilecito 09-05-2026 06:30 7,2 38,2 0 0 309 0,6 935,6
26 Monte Patria - Chilecito 09-05-2026 06:15 7,3 37,1 0 0 309 0,6 935,2
25 Monte Patria - Chilecito 09-05-2026 06:00 7,7 39,7 0 0 309 0,6 935,2
24 Monte Patria - Chilecito 09-05-2026 05:45 8,8 33,4 0 0 309 0,6 935
23 Monte Patria - Chilecito 09-05-2026 05:30 8 36,6 0 0 309 0,6 934,8
22 Monte Patria - Chilecito 09-05-2026 05:15 8,5 35,1 0 0 309 0,6 935
21 Monte Patria - Chilecito 09-05-2026 05:00 8,3 35,8 0 0 309 0,6 934,8
20 Monte Patria - Chilecito 09-05-2026 04:45 8,4 37,9 0 0 309 0,6 934,9
19 Monte Patria - Chilecito 09-05-2026 04:30 8,8 35 0 0 309 0,6 934,9
18 Monte Patria - Chilecito 09-05-2026 04:15 9,5 34,9 0 0 309 0,6 934,9
17 Monte Patria - Chilecito 09-05-2026 04:00 9 37,7 0 0 309 0,6 934,8
16 Monte Patria - Chilecito 09-05-2026 03:45 8,9 38 0 0 309 0,6 934,8
15 Monte Patria - Chilecito 09-05-2026 03:30 9,8 37,2 0 0 309 0,6 935
14 Monte Patria - Chilecito 09-05-2026 03:15 10 35,4 0 0 309 0,6 935
13 Monte Patria - Chilecito 09-05-2026 03:00 10,8 35,6 0 0 309 0,6 934,9
12 Monte Patria - Chilecito 09-05-2026 02:45 12,1 32,3 0 0 309 0,6 935,2
11 Monte Patria - Chilecito 09-05-2026 02:30 11,7 34 0 0 309 0,6 935,3
10 Monte Patria - Chilecito 09-05-2026 02:15 11,7 35,1 0 0 310 0,6 935,4
9 Monte Patria - Chilecito 09-05-2026 02:00 11,8 35,8 0 0 310 0,6 935,5
8 Monte Patria - Chilecito 09-05-2026 01:45 12 35 0 0 312 0,6 935,7
7 Monte Patria - Chilecito 09-05-2026 01:30 11,8 37,1 0 0 312 0,6 936
6 Monte Patria - Chilecito 09-05-2026 01:15 11,5 37,8 0 0 312 0,6 936,1
5 Monte Patria - Chilecito 09-05-2026 01:00 11,6 37,9 0 0 312 0,6 936,1
4 Monte Patria - Chilecito 09-05-2026 00:45 11,9 37,6 0 0 312 0,6 936,4
3 Monte Patria - Chilecito 09-05-2026 00:30 12 37,3 0 0 312 0,6 936,8
2 Monte Patria - Chilecito 09-05-2026 00:15 12,6 36,1 0 0 312 0,6 936,7
1 Monte Patria - Chilecito 09-05-2026 00:00 13 34,5 0 0 312 0,6 936,8